Livingston, MT

1:48 AM MDT on April 25, 2017 (GMT -0600)
Mission

Weather History for KLVM - October, 2011

Change the Weather History Date:

Saturday, October 1, 2011

  Actual Average Record
Temperature  
Mean Temperature 66 °F 50 °F  
Max Temperature 91 °F 65 °F 91 °F (2011)
Min Temperature 43 °F 35 °F 10 °F (1950)
Degree Days  
Heating Degree Days 0 15  
Month to date heating degree days 15  
Since 1 July heating degree days 424  
Cooling Degree Days 2 0  
Month to date cooling degree days 0  
Year to date cooling degree days 229  
Growing Degree Days 16 (Base 50)    
Moisture  
Dew Point 31 °F    
Average Humidity 30    
Maximum Humidity 60    
Minimum Humidity 11    
Precipitation  
Precipitation 0.00 in 0.05 in 0.90 in (1989)
Month to date precipitation 0.05  
Year to date precipitation 12.49  
Sea Level Pressure  
Sea Level Pressure 29.91 in    
Wind  
Wind Speed 6 mph (SW)    
Max Wind Speed 23 mph    
Max Gust Speed 36 mph    
Visibility 10 miles    
Events      
T = Trace of Precipitation, MM = Missing Value Source: NWS Daily Summary

Daily Weather History Graph

Daily Weather History Graph

Search for Another Location

Airport or City:

Trip Planner

Search our weather history database for the weather conditions in past years. The results will help you decide how hot, cold, wet, or windy it might be!

Date:

Astronomy

Oct. 01, 2011 Rise Set
Actual Time 7:19 AM MDT 7:02 PM MDT
Civil Twilight 6:50 AM MDT 7:31 PM MDT
Nautical Twilight 6:15 AM MDT 8:06 PM MDT
Astronomical Twilight 5:40 AM MDT 8:41 PM MDT
Moon 12:47 PM MDT (10/1) 9:45 PM MDT (10/1)
Length of Visible Light 12h 41m
Length of Day
11h 42m
Waxing Crescent, 25% of the Moon is Illuminated
Oct 1
Waxing Crescent
Oct 3
First Quarter
Oct 11
Full
Oct 19
Last Quarter
Oct 26
New

Hourly Weather History & Observations

Time (MDT) Temp. Dew Point Humidity Pressure Visibility Wind Dir Wind Speed Gust Speed Precip Events Conditions
12:53 AM 48.9 °F 30.0 °F 48% 29.91 in 10.0 mi Calm Calm - N/A   Clear
1:53 AM 51.1 °F 32.0 °F 48% 29.90 in 10.0 mi WNW 3.5 mph - N/A   Clear
2:53 AM 51.8 °F 30.2 °F 44% 30.04 in 10.0 mi WNW 4.6 mph - N/A   Clear
3:53 AM 46.9 °F 30.9 °F 54% 29.91 in 10.0 mi NW 4.6 mph - N/A   Clear
4:53 AM 50.0 °F 30.9 °F 48% 29.91 in 10.0 mi Calm Calm - N/A   Clear
5:53 AM 48.2 °F 30.2 °F 50% 30.03 in 10.0 mi NNW 6.9 mph - N/A   Clear
6:53 AM 43.0 °F 30.0 °F 60% 29.95 in 10.0 mi Calm Calm - N/A   Clear
7:53 AM 50.0 °F 32.0 °F 50% 30.04 in 10.0 mi South 3.5 mph - N/A   Clear
8:53 AM 60.1 °F 33.1 °F 36% 29.93 in 10.0 mi Calm Calm - N/A   Clear
9:53 AM 64.9 °F 32.0 °F 29% 29.95 in 10.0 mi ESE 5.8 mph - N/A   Clear
10:53 AM 66.0 °F 34.0 °F 30% 29.94 in 10.0 mi ESE 3.5 mph - N/A   Clear
11:53 AM 77.0 °F 32.0 °F 19% 29.90 in 10.0 mi East 4.6 mph - N/A   Clear
12:39 PM 87.8 °F 30.2 °F 13% 29.99 in 10.0 mi SSW 20.7 mph 27.6 mph N/A   Clear
12:53 PM 86.0 °F 30.0 °F 13% 29.87 in 10.0 mi SSW 16.1 mph 25.3 mph N/A   Clear
1:53 PM 89.6 °F 30.2 °F 12% 29.97 in 10.0 mi SSW 21.9 mph 29.9 mph N/A   Clear
2:53 PM 90.0 °F 28.0 °F 11% 29.81 in 10.0 mi SW 23.0 mph 35.7 mph N/A   Clear
3:53 PM 86.0 °F 28.9 °F 13% 29.83 in 10.0 mi SW 15.0 mph 24.2 mph N/A   Clear
4:53 PM 88.0 °F 28.0 °F 12% 29.80 in 10.0 mi WSW 21.9 mph 27.6 mph N/A   Clear
5:53 PM 84.9 °F 28.9 °F 13% 29.81 in 10.0 mi SW 17.3 mph 25.3 mph N/A   Clear
6:53 PM 81.0 °F 30.0 °F 16% 29.83 in 10.0 mi SW 17.3 mph 23.0 mph N/A   Clear
7:53 PM 75.9 °F 30.9 °F 19% 29.85 in 10.0 mi SSW 9.2 mph - N/A   Clear
8:53 PM 73.0 °F 32.0 °F 22% 29.84 in 10.0 mi Calm Calm - N/A   Clear
9:53 PM 64.4 °F 32.0 °F 30% 29.97 in 10.0 mi SSW 8.1 mph - N/A   Clear
10:53 PM 70.0 °F 33.1 °F 26% 29.86 in 10.0 mi SW 10.4 mph - N/A   Clear
11:53 PM 66.9 °F 34.0 °F 30% 29.85 in 10.0 mi SSW 8.1 mph - N/A   Clear